When you browse on this site, cookies collect data to enhance your experience and personalize the content and advertising you see.
Visit our Privacy Policy to learn more. By continuing to use the site, you agree to this use of cookies and data.
  • In Hungary
  • List of Countries
  • For 7 days
  • Water Temperature
  • Satellite Maps
  • Weather Map
  • News
  • Weather Widgets
  • user-avatar
    Login

    Hourly Weather Dolmatovo

    Today, 16 January, Wednesday

    Time Temperature Precipitation Wind Pressure Humidity
    00:00 -10°C° 0 mm 5 mps 731 mmHg 90%
    01:00 -10°C° 0 mm 4 mps 731 mmHg 90%
    02:00 -10°C° 0 mm 4 mps 731 mmHg 91%
    03:00 -10°C° 0 mm 4 mps 731 mmHg 90%
    04:00 -9°C° 0 mm 3 mps 732 mmHg 90%
    05:00 -9°C° 0 mm 3 mps 732 mmHg 90%
    06:00 -9°C° 0 mm 3 mps 732 mmHg 90%
    07:00 -10°C° 0 mm 3 mps 733 mmHg 91%
    08:00 -10°C° 0 mm 3 mps 733 mmHg 91%
    09:00 -10°C° 0 mm 3 mps 733 mmHg 91%
    10:00 -9°C° 0 mm 3 mps 733 mmHg 90%
    11:00 -9°C° 0 mm 3 mps 733 mmHg 90%
    12:00 -9°C° 0 mm 3 mps 734 mmHg 90%
    13:00 -9°C° 0 mm 3 mps 734 mmHg 91%
    14:00 -9°C° 0 mm 3 mps 734 mmHg 91%
    15:00 -9°C° 0 mm 3 mps 734 mmHg 92%
    16:00 -9°C° 0 mm 3 mps 734 mmHg 93%
    17:00 -9°C° 0 mm 3 mps 735 mmHg 94%
    18:00 -9°C° 0 mm 3 mps 735 mmHg 94%
    19:00 -9°C° 0 mm 3 mps 735 mmHg 94%
    20:00 -9°C° 0 mm 3 mps 735 mmHg 94%
    21:00 -9°C° 0 mm 3 mps 735 mmHg 94%
    22:00 -9°C° 0 mm 3 mps 736 mmHg 94%
    23:00 -9°C° 0 mm 3 mps 736 mmHg 94%

    Tomorrow, 17 January, Thursday

    Time Temperature Precipitation Wind Pressure Humidity
    00:00 -9°C° 0 mm 3 mps 736 mmHg 93%
    01:00 -9°C° 0 mm 3 mps 737 mmHg 92%
    02:00 -9°C° 0 mm 3 mps 737 mmHg 91%
    03:00 -9°C° 0 mm 3 mps 737 mmHg 91%
    04:00 -10°C° 0 mm 3 mps 737 mmHg 90%
    05:00 -10°C° 0 mm 3 mps 737 mmHg 90%
    06:00 -12°C° 0 mm 3 mps 737 mmHg 91%
    07:00 -12°C° 0 mm 4 mps 737 mmHg 92%
    08:00 -12°C° 0 mm 4 mps 736 mmHg 93%
    09:00 -12°C° 0.3 mm 5 mps 736 mmHg 92%
    10:00 -11°C° 0.3 mm 5 mps 735 mmHg 92%
    11:00 -10°C° 0.3 mm 6 mps 735 mmHg 92%
    12:00 -8°C° 0.8 mm 6 mps 734 mmHg 92%
    13:00 -6°C° 0.8 mm 6 mps 733 mmHg 92%
    14:00 -5°C° 0.8 mm 6 mps 733 mmHg 92%
    15:00 -4°C° 0.4 mm 6 mps 732 mmHg 90%
    16:00 -4°C° 0.4 mm 7 mps 731 mmHg 89%
    17:00 -3°C° 0.4 mm 7 mps 731 mmHg 87%
    18:00 -3°C° 0.6 mm 7 mps 730 mmHg 87%
    19:00 -2°C° 0.6 mm 7 mps 730 mmHg 86%
    20:00 -2°C° 0.6 mm 7 mps 729 mmHg 86%
    21:00 -2°C° 0.4 mm 7 mps 729 mmHg 85%
    22:00 -2°C° 0.4 mm 7 mps 728 mmHg 84%
    23:00 -2°C° 0.4 mm 7 mps 728 mmHg 83%

    Day after tomorrow, 18 January, Friday

    Time Temperature Precipitation Wind Pressure Humidity
    00:00 -2°C° 0.1 mm 7 mps 728 mmHg 82%
    01:00 -2°C° 0.1 mm 7 mps 728 mmHg 80%
    02:00 -1°C° 0.1 mm 8 mps 728 mmHg 79%
    03:00 -1°C° 0.1 mm 8 mps 729 mmHg 79%
    04:00 -1°C° 0.1 mm 7 mps 729 mmHg 80%
    05:00 -1°C° 0.1 mm 7 mps 730 mmHg 80%
    06:00 -2°C° 0 mm 7 mps 731 mmHg 81%
    07:00 -3°C° 0 mm 6 mps 732 mmHg 81%
    08:00 -4°C° 0 mm 5 mps 732 mmHg 82%
    09:00 -2°C° 0 mm 5 mps 733 mmHg 85%
    10:00 -2°C° 0 mm 4 mps 733 mmHg 88%
    11:00 -1°C° 0 mm 3 mps 733 mmHg 91%
    12:00 -1°C° 0.2 mm 3 mps 733 mmHg 91%
    13:00 -2°C° 0.2 mm 4 mps 732 mmHg 90%
    14:00 -1°C° 0.2 mm 4 mps 732 mmHg 90%
    15:00 -1°C° 0.4 mm 5 mps 731 mmHg 87%
    16:00 -2°C° 0.4 mm 6 mps 731 mmHg 83%
    17:00 -2°C° 0.4 mm 7 mps 731 mmHg 79%
    18:00 -4°C° 0.2 mm 7 mps 731 mmHg 83%
    19:00 -7°C° 0.2 mm 7 mps 731 mmHg 86%
    20:00 -10°C° 0.2 mm 8 mps 732 mmHg 89%
    21:00 -11°C° 0.3 mm 7 mps 733 mmHg 88%
    22:00 -11°C° 0.3 mm 6 mps 734 mmHg 88%
    23:00 -13°C° 0.3 mm 5 mps 735 mmHg 87%

    19 January, Saturday

    Time Temperature Precipitation Wind Pressure Humidity
    00:00 -13°C° 0 mm 5 mps 736 mmHg 87%
    01:00 -13°C° 0 mm 5 mps 737 mmHg 87%
    02:00 -12°C° 0 mm 4 mps 738 mmHg 86%
    03:00 -11°C° 0.1 mm 4 mps 738 mmHg 87%
    04:00 -11°C° 0.1 mm 4 mps 738 mmHg 88%
    05:00 -10°C° 0.1 mm 4 mps 738 mmHg 89%
    06:00 -10°C° 0.1 mm 4 mps 739 mmHg 89%
    07:00 -9°C° 0.1 mm 4 mps 739 mmHg 89%
    08:00 -8°C° 0.1 mm 3 mps 739 mmHg 89%
    09:00 -9°C° 0.2 mm 4 mps 739 mmHg 88%
    10:00 -9°C° 0.2 mm 4 mps 740 mmHg 87%
    11:00 -9°C° 0.2 mm 4 mps 740 mmHg 86%
    12:00 -8°C° 0.1 mm 4 mps 741 mmHg 85%
    13:00 -8°C° 0.1 mm 4 mps 741 mmHg 85%
    14:00 -8°C° 0.1 mm 4 mps 741 mmHg 84%
    15:00 -8°C° 0.2 mm 4 mps 742 mmHg 86%
    16:00 -8°C° 0.2 mm 4 mps 742 mmHg 89%
    17:00 -8°C° 0.2 mm 4 mps 742 mmHg 91%
    18:00 -8°C° 0.1 mm 4 mps 742 mmHg 89%
    19:00 -8°C° 0.1 mm 4 mps 742 mmHg 88%
    20:00 -9°C° 0.1 mm 4 mps 743 mmHg 86%
    21:00 -9°C° 0 mm 4 mps 743 mmHg 87%
    22:00 -9°C° 0 mm 4 mps 743 mmHg 88%
    23:00 -10°C° 0 mm 4 mps 743 mmHg 89%

    20 January, Sunday

    Time Temperature Precipitation Wind Pressure Humidity
    00:00 -10°C° 0 mm 4 mps 743 mmHg 89%
    01:00 -10°C° 0 mm 4 mps 743 mmHg 89%
    02:00 -10°C° 0 mm 4 mps 743 mmHg 89%
    03:00 -10°C° 0 mm 4 mps 743 mmHg 89%
    04:00 -10°C° 0 mm 4 mps 743 mmHg 90%
    05:00 -10°C° 0 mm 4 mps 743 mmHg 91%
    06:00 -9°C° 0 mm 3 mps 743 mmHg 92%
    07:00 -10°C° 0 mm 3 mps 744 mmHg 93%
    08:00 -12°C° 0 mm 3 mps 744 mmHg 94%
    09:00 -10°C° 0 mm 3 mps 744 mmHg 94%
    10:00 -8°C° 0 mm 2 mps 745 mmHg 93%
    11:00 -8°C° 0 mm 2 mps 745 mmHg 92%
    12:00 -7°C° 0 mm 2 mps 745 mmHg 91%
    13:00 -7°C° 0 mm 2 mps 745 mmHg 90%
    14:00 -6°C° 0 mm 2 mps 745 mmHg 89%
    15:00 -7°C° 0 mm 2 mps 745 mmHg 91%
    16:00 -7°C° 0 mm 2 mps 745 mmHg 93%
    17:00 -8°C° 0 mm 2 mps 745 mmHg 95%
    18:00 -8°C° 0 mm 2 mps 745 mmHg 95%
    19:00 -9°C° 0 mm 2 mps 745 mmHg 95%
    20:00 -9°C° 0 mm 2 mps 745 mmHg 96%
    21:00 -9°C° 0.1 mm 2 mps 744 mmHg 96%
    22:00 -10°C° 0.1 mm 2 mps 744 mmHg 96%
    23:00 -9°C° 0.1 mm 1 mps 744 mmHg 96%

    21 January, Monday

    Time Temperature Precipitation Wind Pressure Humidity
    00:00 -9°C° 0.1 mm 1 mps 744 mmHg 97%
    01:00 -8°C° 0.1 mm 1 mps 744 mmHg 97%
    02:00 -8°C° 0.1 mm 1 mps 745 mmHg 97%
    03:00 -8°C° 0 mm 1 mps 745 mmHg 97%
    04:00 -8°C° 0 mm 1 mps 744 mmHg 97%
    05:00 -8°C° 0 mm 1 mps 744 mmHg 97%
    06:00 -9°C° 0 mm 1 mps 745 mmHg 97%
    07:00 -9°C° 0 mm 1 mps 745 mmHg 97%
    08:00 -9°C° 0 mm 1 mps 745 mmHg 97%
    09:00 -8°C° 0 mm 1 mps 745 mmHg 96%
    10:00 -8°C° 0 mm 1 mps 745 mmHg 96%
    11:00 -8°C° 0 mm 2 mps 745 mmHg 95%
    12:00 -8°C° 0 mm 2 mps 745 mmHg 94%
    13:00 -8°C° 0 mm 2 mps 745 mmHg 94%
    14:00 -6°C° 0 mm 1 mps 745 mmHg 93%
    15:00 -7°C° 0.1 mm 1 mps 745 mmHg 94%
    16:00 -8°C° 0.1 mm 1 mps 745 mmHg 95%
    17:00 -8°C° 0.1 mm 1 mps 745 mmHg 96%
    18:00 -9°C° 0 mm 1 mps 745 mmHg 96%
    19:00 -11°C° 0 mm 1 mps 746 mmHg 96%
    20:00 -12°C° 0 mm 1 mps 746 mmHg 97%
    21:00 -12°C° 0 mm 1 mps 746 mmHg 97%
    22:00 -14°C° 0 mm 2 mps 746 mmHg 97%
    23:00 -14°C° 0 mm 2 mps 746 mmHg 97%
    Show more